| time (UTC) | temp F | wind direction | speed MPH | gust MPH | rain 1hr in | rain 24hr in | rain mn in | humidity % | barometer mb |
| 20260503204509 | 54 | 265 | 2.0 | 18.0 | 0.00 | 0.00 | 0.00 | 38 | 1008.3 |
| 20260503203018 | 53 | 349 | 5.0 | 16.0 | 0.00 | 0.00 | 0.00 | 38 | 1008.5 |
| 20260503201506 | 53 | 29 | 5.0 | 28.0 | 0.00 | 0.00 | 0.00 | 40 | 1008.8 |
| 20260503200004 | 53 | 296 | 3.0 | 10.0 | 0.00 | 0.00 | 0.00 | 45 | 1008.7 |
| 20260503194600 | 51 | 323 | 5.0 | 13.0 | 0.00 | 0.00 | 0.00 | 47 | 1009.0 |
| 20260503194501 | 51 | 342 | 3.0 | 12.0 | 0.00 | 0.00 | 0.00 | 44 | 1009.0 |
| 20260503193110 | 50 | 272 | 7.0 | 23.0 | 0.00 | 0.00 | 0.00 | 43 | 1009.1 |
| 20260503191608 | 50 | 303 | 8.0 | 20.0 | 0.00 | 0.00 | 0.00 | 45 | 1009.3 |
| 20260503190059 | 50 | 271 | 7.0 | 14.0 | 0.00 | 0.00 | 0.00 | 44 | 1009.3 |
| 20260503184610 | 50 | 360 | 5.0 | 17.0 | 0.00 | 0.00 | 0.00 | 43 | 1009.5 |
| 20260503183109 | 50 | 265 | 3.0 | 13.0 | 0.00 | 0.00 | 0.00 | 43 | 1009.6 |
| 20260503181608 | 50 | 340 | 2.0 | 14.0 | 0.00 | 0.00 | 0.00 | 44 | 1009.4 |
| 20260503180056 | 49 | 267 | 7.0 | 16.0 | 0.00 | 0.00 | 0.00 | 42 | 1009.4 |
| 20260503174555 | 49 | 30 | 6.0 | 18.0 | 0.00 | 0.00 | 0.00 | 43 | 1009.3 |
| 20260503173100 | 50 | 275 | 7.0 | 14.0 | 0.00 | 0.00 | 0.00 | 45 | 1009.1 |
| 20260503171552 | 49 | 281 | 5.0 | 16.0 | 0.00 | 0.00 | 0.00 | 43 | 1009.2 |
| 20260503081611 | 35 | 56 | 0.0 | 0.0 | 0.00 | 0.13 | 0.00 | 79 | 1009.8 |
| 20260503071537 | 38 | 73 | 0.0 | 2.0 | 0.00 | 0.17 | 0.00 | 72 | 1010.0 |
| 20260503060122 | 40 | 257 | 0.0 | 5.0 | 0.00 | 0.21 | 0.00 | 67 | 1010.5 |
| 20260503054521 | 41 | 306 | 3.0 | 9.0 | 0.00 | 0.24 | 0.00 | 67 | 1010.6 |
| 20260503053020 | 41 | 288 | 2.0 | 10.0 | 0.00 | 0.24 | 0.00 | 65 | 1010.7 |
| 20260503051517 | 41 | 310 | 2.0 | 6.0 | 0.00 | 0.24 | 0.00 | 66 | 1010.9 |
| 20260503050027 | 41 | 317 | 1.0 | 5.0 | 0.00 | 0.24 | 0.00 | 64 | 1011.1 |
| 20260503044512 | 42 | 302 | 2.0 | 8.0 | 0.00 | 0.28 | 0.00 | 64 | 1011.1 |
| 20260503043009 | 41 | 306 | 0.0 | 5.0 | 0.00 | 0.28 | 0.00 | 64 | 1011.1 |
| 20260503041508 | 41 | 287 | 0.0 | 2.0 | 0.00 | 0.28 | 0.00 | 63 | 1011.3 |
| 20260503040005 | 41 | 221 | 0.0 | 1.0 | 0.00 | 0.28 | 0.00 | 63 | 1011.5 |
| 20260503034503 | 42 | 69 | 0.0 | 2.0 | 0.00 | 0.28 | 0.28 | 62 | 1011.4 |
| 20260503033138 | 42 | 63 | 0.0 | 3.0 | 0.00 | 0.28 | 0.28 | 61 | 1011.3 |
| 20260503033002 | 42 | 63 | 0.0 | 3.0 | 0.00 | 0.28 | 0.28 | 62 | 1011.3 |
| 20260503031601 | 43 | 49 | 0.0 | 4.0 | 0.00 | 0.28 | 0.28 | 61 | 1011.5 |
| 20260503030109 | 43 | 70 | 0.0 | 4.0 | 0.00 | 0.28 | 0.28 | 62 | 1011.6 |
| 20260503024621 | 43 | 15 | 0.0 | 5.0 | 0.00 | 0.28 | 0.28 | 63 | 1011.7 |
| 20260503023051 | 44 | 299 | 0.0 | 0.0 | 0.00 | 0.28 | 0.28 | 62 | 1011.7 |
| 20260503021559 | 45 | 299 | 0.0 | 2.0 | 0.00 | 0.28 | 0.28 | 58 | 1011.8 |
| 20260503020051 | 45 | 5 | 0.0 | 4.0 | 0.00 | 0.28 | 0.28 | 58 | 1011.7 |
| 20260503014550 | 46 | 167 | 0.0 | 3.0 | 0.00 | 0.28 | 0.28 | 57 | 1011.8 |
| 20260503013049 | 46 | 12 | 1.0 | 6.0 | 0.00 | 0.28 | 0.28 | 55 | 1011.7 |
| 20260503011551 | 46 | 106 | 0.0 | 4.0 | 0.00 | 0.28 | 0.28 | 58 | 1011.7 |
| 20260503010047 | 46 | 134 | 0.0 | 3.0 | 0.00 | 0.28 | 0.28 | 57 | 1011.1 |
| 20260503004547 | 47 | 15 | 0.0 | 4.0 | 0.00 | 0.28 | 0.28 | 55 | 1011.0 |
| 20260503003048 | 47 | 325 | 1.0 | 6.0 | 0.00 | 0.28 | 0.28 | 53 | 1010.9 |
| 20260503001558 | 48 | 341 | 0.0 | 4.0 | 0.00 | 0.28 | 0.28 | 52 | 1010.7 |
| 20260503000058 | 48 | 333 | 1.0 | 5.0 | 0.00 | 0.28 | 0.28 | 51 | 1010.7 |
| 20260502234550 | 49 | 336 | 1.0 | 4.0 | 0.00 | 0.28 | 0.28 | 51 | 1010.8 |
| 20260502233059 | 49 | 38 | 0.0 | 2.0 | 0.00 | 0.28 | 0.28 | 53 | 1010.5 |
| 20260502231559 | 50 | 158 | 0.0 | 4.0 | 0.00 | 0.28 | 0.28 | 51 | 1010.5 |
| 20260502230044 | 50 | 38 | 0.0 | 2.0 | 0.00 | 0.28 | 0.28 | 51 | 1010.4 |
| 20260502224544 | 51 | 55 | 0.0 | 9.0 | 0.00 | 0.28 | 0.28 | 50 | 1010.3 |
| 20260502223048 | 52 | 302 | 0.0 | 5.0 | 0.00 | 0.28 | 0.28 | 48 | 1010.1 |
| 20260502221557 | 53 | 309 | 2.0 | 13.0 | 0.00 | 0.28 | 0.28 | 46 | 1010.0 |
| 20260502220044 | 52 | 360 | 3.0 | 11.0 | 0.00 | 0.28 | 0.28 | 48 | 1009.9 |
| 20260502214541 | 52 | 306 | 2.0 | 7.0 | 0.00 | 0.28 | 0.28 | 49 | 1009.8 |
| 20260502213049 | 52 | 181 | 0.0 | 5.0 | 0.00 | 0.28 | 0.28 | 49 | 1009.6 |
| 20260502211545 | 53 | 313 | 1.0 | 6.0 | 0.00 | 0.28 | 0.28 | 47 | 1009.4 |
| 20260502210043 | 55 | 283 | 2.0 | 11.0 | 0.00 | 0.28 | 0.28 | 44 | 1009.3 |